EW5833 Weather Reports


Display with metric or nautical units.
time (UTC)temp
F
wind
direction
speed
MPH
gust
MPH
rain 1hr
in
rain 24hr
in
rain mn
in
humidity
%
barometer
mb
20260508144702 56 121 1.0 6.0 0.00 0.04 0.04 45 1010.8
20260508143703 55 0 1.0 5.0 0.00 0.04 0.04 42 1010.8
20260508142702 54 0 2.0 6.0 0.00 0.04 0.04 46 1010.8
20260508142152 53 143 3.0 6.0 0.00 0.04 0.04 47 1011.0
20260508141701 53 143 3.0 6.0 0.00 0.04 0.04 47 1011.0
20260508140702 54 106 1.0 6.0 0.00 0.04 0.04 46 1011.0
20260508135704 53 127 2.0 6.0 0.00 0.04 0.04 41 1011.0
20260508135158 52 263 3.0 7.0 0.00 0.04 0.04 47 1011.1
20260508134704 52 263 3.0 7.0 0.00 0.04 0.04 47 1011.1
20260508133704 52 348 2.0 6.0 0.00 0.04 0.04 55 1011.0
20260508133546 52 288 1.0 4.0 0.00 0.04 0.04 53 1011.0
20260508132842 51 282 2.0 8.0 0.00 0.04 0.04 57 1011.0
20260508131703 52 288 1.0 4.0 0.00 0.04 0.04 53 1011.0
20260508130702 51 343 2.0 5.0 0.00 0.04 0.04 59 1011.0
20260508125702 50 105 1.0 4.0 0.00 0.04 0.04 58 1011.1
20260508125153 49 0 1.0 4.0 0.00 0.04 0.04 67 1011.2
20260508124703 49 0 1.0 4.0 0.00 0.04 0.04 67 1011.2
20260508123704 48 0 1.0 3.0 0.00 0.04 0.04 67 1011.0
20260508122703 47 125 2.0 4.0 0.00 0.04 0.04 69 1010.9
20260508121702 45 149 1.0 3.0 0.00 0.04 0.04 72 1010.9
20260508121146 44 137 1.0 2.0 0.00 0.04 0.04 81 1010.7
20260508120703 44 137 1.0 2.0 0.00 0.04 0.04 81 1010.7
20260508115702 42 135 0.0 2.0 0.00 0.04 0.04 95 1010.6
20260508115355 40 0 0.0 1.0 0.00 0.04 0.04 98 1010.6
20260508115240 40 0 0.0 1.0 0.00 0.04 0.04 98 1010.6
20260508113703 39 0 0.0 0.0 0.00 0.04 0.04 99 1010.5
20260508112703 37 0 0.0 0.0 0.00 0.04 0.04 99 1010.4
20260508111703 35 0 0.0 0.0 0.00 0.04 0.04 99 1010.5
20260508111617 35 0 0.0 0.0 0.00 0.04 0.04 99 1010.4
20260508110702 35 0 0.0 0.0 0.00 0.04 0.04 99 1010.4
20260508105701 34 0 0.0 0.0 0.00 0.04 0.04 99 1010.4
20260508104701 34 0 0.0 0.0 0.00 0.04 0.04 99 1010.4
20260508103702 34 0 0.0 0.0 0.00 0.04 0.04 99 1010.4
20260508102702 34 0 0.0 0.0 0.00 0.04 0.04 99 1010.4
20260508101702 34 0 0.0 0.0 0.00 0.04 0.04 99 1010.4
20260508100701 35 0 0.0 0.0 0.00 0.04 0.04 99 1010.4
20260508095702 35 0 0.0 0.0 0.00 0.04 0.04 99 1010.4
20260508095618 35 0 0.0 1.0 0.00 0.04 0.04 100 1010.5
20260508094702 35 0 0.0 1.0 0.00 0.04 0.04 100 1010.5
20260508093703 35 0 0.0 1.0 0.00 0.04 0.04 100 1010.6
20260508092703 35 0 0.0 0.0 0.00 0.04 0.04 100 1010.6
20260508092135 35 0 0.0 0.0 0.00 0.04 0.04 100 1010.7
20260508091912 35 0 0.0 0.0 0.00 0.04 0.04 100 1010.7
20260508091354 35 0 0.0 0.0 0.00 0.04 0.04 99 1010.7
20260508091235 35 0 0.0 0.0 0.00 0.04 0.04 99 1010.7
20260508090619 36 0 0.0 0.0 0.00 0.04 0.04 99 1010.7
20260508085701 36 0 0.0 0.0 0.00 0.04 0.04 99 1010.7
20260508085139 36 0 0.0 0.0 0.00 0.04 0.04 99 1010.8
20260508084701 36 0 0.0 0.0 0.00 0.04 0.04 99 1010.8
20260508083700 36 0 0.0 0.0 0.00 0.04 0.04 99 1010.8
20260508082703 37 0 0.0 0.0 0.00 0.04 0.04 98 1010.7
20260508081702 37 0 0.0 0.0 0.00 0.04 0.04 98 1010.7
20260508080702 37 0 0.0 2.0 0.00 0.04 0.04 98 1010.6
20260508075701 38 0 0.0 2.0 0.00 0.04 0.04 97 1010.6
20260508074703 38 0 0.0 1.0 0.00 0.04 0.04 97 1010.7
20260508073701 39 0 0.0 0.0 0.00 0.04 0.04 97 1010.6
20260508073145 39 0 0.0 0.0 0.00 0.04 0.04 96 1010.4
20260508072913 39 0 0.0 0.0 0.00 0.04 0.04 96 1010.4
20260508072623 39 0 0.0 0.0 0.00 0.04 0.04 95 1010.5
20260508071913 39 0 0.0 0.0 0.00 0.04 0.04 95 1010.5
20260508070701 39 0 0.0 2.0 0.00 0.04 0.04 94 1010.5
20260508065701 40 0 0.0 2.0 0.00 0.04 0.04 93 1010.7
20260508064701 40 0 1.0 4.0 0.00 0.04 0.04 92 1010.7
20260508063701 39 332 1.0 4.0 0.03 0.03 0.03 93 1011.2
20260508062701 39 0 0.0 0.0 0.03 0.03 0.03 92 1011.1
20260508062141 40 0 0.0 0.0 0.03 0.03 0.03 92 1011.0
20260508061702 40 0 0.0 0.0 0.03 0.03 0.03 92 1011.0
20260508060702 40 0 0.0 2.0 0.03 0.03 0.03 90 1011.0
20260508055701 41 357 2.0 5.0 0.03 0.03 0.03 86 1011.2
20260508054701 42 111 2.0 6.0 0.03 0.03 0.02 78 1010.6
20260508053702 42 0 0.0 2.0 0.00 0.00 0.00 78 1011.1
20260508052702 42 348 1.0 2.0 0.00 0.00 0.00 77 1011.0
20260508051701 42 0 1.0 3.0 0.00 0.00 0.00 78 1011.1
20260508050701 41 0 0.0 0.0 0.00 0.00 0.00 75 1011.3
20260508050145 42 0 0.0 2.0 0.00 0.00 0.00 75 1011.3
20260508045914 42 0 0.0 2.0 0.00 0.00 0.00 75 1011.3
20260508044701 42 100 0.0 3.0 0.00 0.00 0.00 75 1011.1
20260508043702 41 0 0.0 0.0 0.00 0.00 0.00 78 1011.4
20260508042701 42 0 0.0 0.0 0.00 0.00 0.00 77 1011.3
20260508041703 42 0 0.0 2.0 0.00 0.00 0.00 74 1011.1
20260508040703 41 333 0.0 4.0 0.00 0.00 0.00 76 1010.9
20260508035703 42 0 0.0 0.0 0.00 0.00 0.00 72 1010.8
20260508035143 42 0 0.0 1.0 0.00 0.00 0.00 70 1010.9
20260508034703 42 0 0.0 1.0 0.00 0.00 0.00 70 1010.9
20260508034147 42 0 0.0 0.0 0.00 0.00 0.00 74 1010.9
20260508033914 42 0 0.0 0.0 0.00 0.00 0.00 74 1010.9
20260508033148 42 0 0.0 0.0 0.00 0.00 0.00 72 1010.7
20260508032958 42 0 0.0 1.0 0.00 0.00 0.00 73 1010.9
20260508032914 42 0 0.0 0.0 0.00 0.00 0.00 72 1010.7
20260508032530 42 0 0.0 1.0 0.00 0.00 0.00 73 1010.9
20260508030703 42 0 0.0 0.0 0.00 0.00 0.00 73 1011.0
20260508025704 42 0 0.0 0.0 0.00 0.00 0.00 75 1011.1
20260508024704 42 0 0.0 0.0 0.00 0.00 0.00 72 1011.2
20260508023703 43 0 0.0 0.0 0.00 0.00 0.00 71 1011.2
20260508022702 44 0 0.0 1.0 0.00 0.00 0.00 67 1011.0
20260508021704 44 0 0.0 0.0 0.00 0.00 0.00 63 1011.0
20260508020703 45 0 0.0 0.0 0.00 0.00 0.00 62 1010.9
20260508015702 46 0 0.0 2.0 0.00 0.00 0.00 60 1010.9
20260508014707 46 0 1.0 6.0 0.00 0.00 0.00 58 1010.9
20260508013701 47 296 1.0 6.0 0.00 0.00 0.00 57 1010.8
20260508012701 47 269 3.0 7.0 0.00 0.00 0.00 56 1010.8
20260508011701 48 271 1.0 9.0 0.00 0.00 0.00 53 1010.6
20260508010701 48 0 0.0 4.0 0.00 0.00 0.00 52 1010.5
20260508005701 49 0 2.0 7.0 0.00 0.00 0.00 50 1010.4
20260508004701 49 308 4.0 10.0 0.00 0.00 0.00 48 1010.2
20260508003701 50 342 2.0 7.0 0.00 0.00 0.00 46 1010.3
20260508002701 50 354 1.0 9.0 0.00 0.00 0.00 46 1010.2
20260508001700 50 136 2.0 7.0 0.00 0.00 0.00 45 1010.2
20260508000702 50 0 1.0 5.0 0.00 0.00 0.00 46 1010.1
20260507235702 50 330 2.0 9.0 0.00 0.00 0.00 46 1009.9
20260507235357 51 317 1.0 9.0 0.00 0.00 0.00 46 1009.9
20260507235236 51 317 1.0 9.0 0.00 0.00 0.00 46 1009.9
20260507234142 51 0 2.0 10.0 0.00 0.00 0.00 45 1010.1
20260507233912 51 0 2.0 10.0 0.00 0.00 0.00 45 1010.1
20260507232701 51 0 2.0 8.0 0.00 0.00 0.00 45 1010.1
20260507232352 52 284 2.0 9.0 0.00 0.00 0.00 44 1009.9
20260507232237 52 284 2.0 9.0 0.00 0.00 0.00 44 1009.9
20260507230700 52 303 2.0 9.0 0.00 0.00 0.00 44 1009.9
20260507225701 53 190 2.0 5.0 0.00 0.00 0.00 42 1009.8
20260507225359 53 0 1.0 6.0 0.00 0.00 0.00 44 1009.9
20260507225239 53 0 1.0 6.0 0.00 0.00 0.00 44 1009.9
20260507224354 53 218 2.0 6.0 0.00 0.00 0.00 43 1010.1
20260507224240 53 218 2.0 6.0 0.00 0.00 0.00 43 1010.1
20260507222702 52 0 1.0 7.0 0.00 0.00 0.00 43 1010.2
20260507221701 52 282 3.0 9.0 0.00 0.00 0.00 44 1010.2
20260507220702 53 0 1.0 6.0 0.00 0.00 0.00 42 1010.1
20260507215702 54 278 3.0 9.0 0.00 0.00 0.00 41 1010.1
20260507215642 53 281 3.0 6.0 0.00 0.00 0.00 42 1009.9
20260507214914 53 281 3.0 6.0 0.00 0.00 0.00 42 1009.9
20260507214151 52 87 3.0 8.0 0.00 0.00 0.00 43 1009.9
20260507213702 52 87 3.0 8.0 0.00 0.00 0.00 43 1009.9
20260507213617 51 318 4.0 10.0 0.00 0.00 0.00 43 1009.8
20260507212914 51 318 4.0 10.0 0.00 0.00 0.00 43 1009.8
20260507212554 52 277 3.0 8.0 0.00 0.00 0.00 42 1010.2
20260507211847 51 340 3.0 9.0 0.00 0.00 0.00 43 1010.1
20260507210913 52 277 3.0 8.0 0.00 0.00 0.00 42 1010.2
20260507205702 52 205 4.0 14.0 0.00 0.00 0.00 42 1010.2
20260507205619 54 304 4.0 13.0 0.00 0.00 0.00 39 1010.3
20260507204913 54 304 4.0 13.0 0.00 0.00 0.00 39 1010.3
20260507203702 53 201 4.0 12.0 0.00 0.00 0.00 39 1010.2
20260507202701 54 283 4.0 19.0 0.00 0.00 0.00 38 1010.4
20260507202403 52 280 4.0 12.0 0.00 0.00 0.00 42 1010.5
20260507202235 52 280 4.0 12.0 0.00 0.00 0.00 42 1010.5
20260507200701 53 290 3.0 9.0 0.00 0.00 0.00 42 1010.4
20260507195701 53 270 3.0 12.0 0.00 0.00 0.00 39 1010.5
20260507194701 53 259 3.0 10.0 0.00 0.00 0.00 41 1010.5
20260507193700 52 85 2.0 9.0 0.00 0.00 0.00 45 1010.5
20260507192701 53 244 2.0 9.0 0.00 0.00 0.00 42 1010.6
20260507191701 51 236 4.0 11.0 0.00 0.00 0.00 42 1010.6
20260507191140 51 315 3.0 10.0 0.00 0.00 0.00 46 1010.5
20260507190915 51 315 3.0 10.0 0.00 0.00 0.00 46 1010.5
20260507185700 51 213 4.0 13.0 0.00 0.00 0.00 47 1010.7
20260507185145 51 308 3.0 11.0 0.00 0.00 0.00 46 1010.8
20260507184912 51 308 3.0 11.0 0.00 0.00 0.00 46 1010.8
20260507184142 52 299 3.0 8.0 0.00 0.00 0.00 44 1010.6
20260507183701 52 299 3.0 8.0 0.00 0.00 0.00 44 1010.6
20260507182701 51 273 3.0 10.0 0.00 0.00 0.00 44 1010.8
20260507182150 51 343 4.0 11.0 0.00 0.00 0.00 44 1010.9
20260507181702 51 343 4.0 11.0 0.00 0.00 0.00 44 1010.9
20260507180702 51 304 4.0 10.0 0.00 0.00 0.00 45 1010.8
20260507175704 53 116 2.0 6.0 0.00 0.00 0.00 48 1010.8
20260507175143 52 184 3.0 9.0 0.00 0.00 0.00 47 1010.8
20260507174702 52 184 3.0 9.0 0.00 0.00 0.00 47 1010.8
20260507174619 52 321 3.0 11.0 0.00 0.00 0.00 45 1011.0
20260507173703 52 321 3.0 11.0 0.00 0.00 0.00 45 1011.0
20260507172702 52 293 4.0 12.0 0.00 0.00 0.00 46 1011.1
20260507172642 52 331 4.0 13.0 0.00 0.00 0.00 48 1011.0
20260507171702 52 331 4.0 13.0 0.00 0.00 0.00 48 1011.0
20260507171150 52 324 4.0 11.0 0.00 0.00 0.00 46 1011.2
20260507170702 52 324 4.0 11.0 0.00 0.00 0.00 46 1011.2
20260507165702 53 236 3.0 10.0 0.00 0.00 0.00 46 1011.2
20260507164703 52 288 3.0 10.0 0.00 0.00 0.00 47 1011.1
20260507164632 51 285 4.0 11.0 0.00 0.00 0.00 47 1011.1
20260507163703 51 285 4.0 11.0 0.00 0.00 0.00 47 1011.1
20260507162702 51 213 2.0 8.0 0.00 0.00 0.00 48 1011.3
20260507161702 52 285 5.0 11.0 0.00 0.00 0.00 44 1011.2
20260507160702 51 0 4.0 12.0 0.00 0.00 0.00 47 1011.2
20260507160148 52 317 3.0 9.0 0.00 0.00 0.00 46 1011.2
20260507155704 52 317 3.0 9.0 0.00 0.00 0.00 46 1011.2
20260507155151 52 291 2.0 9.0 0.00 0.00 0.00 44 1011.1
20260507154703 52 291 2.0 9.0 0.00 0.00 0.00 44 1011.1
20260507153704 52 0 2.0 8.0 0.00 0.00 0.00 48 1011.2
20260507152702 51 256 3.0 11.0 0.00 0.00 0.00 45 1011.0
20260507151706 53 239 1.0 6.0 0.00 0.00 0.00 46 1011.0
20260507150703 52 282 2.0 8.0 0.00 0.00 0.00 46 1011.1
20260507150201 53 332 2.0 11.0 0.00 0.00 0.00 47 1011.1
20260507145702 53 332 2.0 11.0 0.00 0.00 0.00 47 1011.1